Weather Service Report


342 
ASUS44 KLIX 290011
RWRLIX
NEW ORLEANS REGIONAL WEATHER ROUNDUP
NATIONAL WEATHER SERVICE NEW ORLEANS LA
700 PM CDT TUE JUN 28 2016

NOTE: "FAIR" INDICATES FEW OR NO CLOUDS BELOW 12,000 FEET WITH NO
      SIGNIFICANT WEATHER AND/OR OBSTRUCTIONS TO VISIBILITY.
      SKY/WX - SKY CONDITION AND SIGNIFICANT WEATHER.
      TMP - AIR TEMPERATURE.     DP    - DEWPOINT TEMPERATURE.
      RH  - RELATIVE HUMIDITY.   PRES  - PRESSURE.
      HI  - HEAT INDEX.          WCI   - WIND CHILL INDEX.

*  THESE STATIONS ARE NOT NWS OR FAA STATIONS AND ARE NOT UNDER
   NWS QUALITY CONTROL. 

LAZ038-040-048-061>063-065>067-069-290100-
SOUTHEAST LOUISIANA
  
CITY           SKY/WX    TMP DP  RH WIND       PRES   REMARKS
N.O. AUDUBON     N/A     78  76  95 MISG        N/A                   
6HR MIN TEMP:  76; 6HR MAX TEMP:  96; 6HR PCP:  0.11;                

N.O. INTL ARPT CLOUDY    81  73  76 NE10      29.92F                  
6HR MIN TEMP:  80; 6HR MAX TEMP:  94; 6HR PCP: TRACE;                

N.O. LAKEFRONT LGT RAIN  79  73  82 N18       29.93F                  
6HR MIN TEMP:  79; 6HR MAX TEMP:  92; 6HR PCP:  0.03;                

N.O. DOWNTOWN* LGT RAIN  78  75  90 N6        29.93F                  
6HR MIN TEMP:  75; 6HR MAX TEMP:  92; 6HR PCP:  1.29;                

RESERVE*         N/A     76  74  91 CALM      29.93S                  
6HR MIN TEMP:  76; 6HR MAX TEMP:  91; 6HR PCP:  0.05;                

SLIDELL        LGT RAIN  74  74 100 N9        29.93F                  
6HR MIN TEMP:  74; 6HR MAX TEMP:  93; 6HR PCP:  0.19;                

BATON ROUGE    CLOUDY    75  72  90 CALM      29.94S                  
6HR MIN TEMP:  73; 6HR MAX TEMP:  89; 6HR PCP:  0.42;                

BOOTHVILLE     CLOUDY    78  73  84 NW7       29.95R                  
6HR MIN TEMP:  78; 6HR MAX TEMP:  89; 6HR PCP: TRACE;                

BELLE CHASSE   CLOUDY    78  74  87 N3        29.92F                  
6HR MIN TEMP:  78; 6HR MAX TEMP:  89; 6HR PCP: TRACE;                

BOGALUSA*      CLOUDY    75  71  87 NE7       29.98S                  
6HR MIN TEMP:  75; 6HR MAX TEMP:  92; 6HR PCP:  0.16;                

GALLIANO*      CLOUDY    78  73  84 CALM      29.93F                  
6HR MIN TEMP:  73; 6HR MAX TEMP:  86; 6HR PCP:  0.02;                

NEW ROADS*       N/A     75  73  91 CALM      29.94S                  
6HR MIN TEMP:  72; 6HR MAX TEMP:  84; 6HR PCP:  0.30;                

GONZALES*      DRIZZLE   74  74 100 CALM      29.92S                  
6HR MIN TEMP:  74; 6HR MAX TEMP:  86; 6HR PCP:  0.01;                

HAMMOND*       RAIN      73  70  88 NE6       29.93F                  
HOUMA*         CLOUDY    75  73  94 NE5       29.93F                  
PORT FOURCHON* CLOUDY    79  73  83 NW3       29.94F                  

$$

MSZ070-080>082-290100-
SOUTHERN MISSISSIPPI
  
CITY           SKY/WX    TMP DP  RH WIND       PRES   REMARKS
MCCOMB         CLOUDY    75  72  90 CALM      29.97F                  
6HR MIN TEMP:  74; 6HR MAX TEMP:  92; 6HR PCP:  0.44;                

GULFPORT       CLOUDY    79  72  79 N13       29.95R THUNDER          
6HR MIN TEMP:  79; 6HR MAX TEMP:  89;                                

BILOXI         TSTM      75  75 100 NE9       29.97R FOG              
6HR MIN TEMP:  80; 6HR MAX TEMP:  89; 6HR PCP:  0.02;                

PASCAGOULA     CLOUDY    82  75  79 CALM      29.94R                  
6HR MIN TEMP:  82; 6HR MAX TEMP:  93;                                

STENNIS ARPT*  SUNNY     73  70  88 N8          N/A                   

$$

COASTAL OBSERVATIONS
LAKE AND NEARSHORE STATIONS
  
STATION/POSITION TIME  TEMP    WIND        PRES    WAVE
                       AIR SEA DIR/SP/G            HT/PER
                 (UTC) (F)     (DEG/KT/KT) (MB)    (FT/S)
PASCAGOULA       2300   85                   N/A
WAVELAND YACHT   2300   79 88                N/A
GRAND ISLE       2300   82 90                N/A
NEW CANAL        2300   80 89                N/A
SHELL BEACH      2300   80 90                N/A

OFFSHORE STATIONS
  
STATION/POSITION TIME  TEMP    WIND        PRES    WAVE
                       AIR SEA DIR/SP/G            HT/PER
                 (UTC) (F)     (DEG/KT/KT) (MB)    (FT/S)
64 S DAUPHIN ISL 2300   85 89  180/ 10/ 16 1013.4

$$

  


343 
ASUS44 KLIX 290011
RWRLA 
LOUISIANA WEATHER ROUNDUP
NATIONAL WEATHER SERVICE NEW ORLEANS LA
700 PM CDT TUE JUN 28 2016

NOTE: "FAIR" INDICATES FEW OR NO CLOUDS BELOW 12,000 FEET WITH NO
      SIGNIFICANT WEATHER AND/OR OBSTRUCTIONS TO VISIBILITY.
      SKY/WX - SKY CONDITION AND SIGNIFICANT WEATHER.
      TMP - AIR TEMPERATURE.    DP   - DEWPOINT TEMPERATURE.
      RH  - RELATIVE HUMIDITY.  PRES - PRESSURE.
      HX  - HEAT INDEX.         WCI  - WIND CHILL INDEX.

*  THESE STATIONS ARE NOT NWS OR FAA STATIONS AND ARE NOT UNDER
   NWS QUALITY CONTROL.

LAZ040-048-061>063-065-066-069-290100-
SOUTHEAST LOUISIANA
  
CITY           SKY/WX    TMP DP  RH WIND       PRES   REMARKS
N.O. AUDUBON     N/A     78  76  95 MISG        N/A                   
6HR MIN TEMP:  76; 6HR MAX TEMP:  96; 6HR PCP:  0.11;                

N.O. INTL ARPT CLOUDY    81  73  76 NE10      29.92F                  
6HR MIN TEMP:  80; 6HR MAX TEMP:  94; 6HR PCP: TRACE;                

N.O. LAKEFRONT LGT RAIN  79  73  82 N18       29.93F                  
6HR MIN TEMP:  79; 6HR MAX TEMP:  92; 6HR PCP:  0.03;                

N.O. DOWNTOWN* LGT RAIN  78  75  90 N6        29.93F                  
6HR MIN TEMP:  75; 6HR MAX TEMP:  92; 6HR PCP:  1.29;                

RESERVE*       FAIR      76  74  91 CALM      29.93S                  
6HR MIN TEMP:  76; 6HR MAX TEMP:  91; 6HR PCP:  0.05;                

SLIDELL        LGT RAIN  74  74 100 N9        29.93F                  
6HR MIN TEMP:  74; 6HR MAX TEMP:  93; 6HR PCP:  0.19;                

BATON ROUGE    CLOUDY    75  72  90 CALM      29.94S                  
6HR MIN TEMP:  73; 6HR MAX TEMP:  89; 6HR PCP:  0.42;                

BOOTHVILLE     CLOUDY    78  73  84 NW7       29.95R                  
6HR MIN TEMP:  78; 6HR MAX TEMP:  89; 6HR PCP: TRACE;                

BELLE CHASSE   CLOUDY    78  74  87 N3        29.92F                  
6HR MIN TEMP:  78; 6HR MAX TEMP:  89; 6HR PCP: TRACE;                

BOGALUSA*      CLOUDY    75  71  87 NE7       29.98S                  
6HR MIN TEMP:  75; 6HR MAX TEMP:  92; 6HR PCP:  0.16;                

GALLIANO*      CLOUDY    78  73  84 CALM      29.93F                  
6HR MIN TEMP:  73; 6HR MAX TEMP:  86; 6HR PCP:  0.02;                

NEW ROADS*     FAIR      75  73  91 CALM      29.94S                  
6HR MIN TEMP:  72; 6HR MAX TEMP:  84; 6HR PCP:  0.30;                

GONZALES*      DRIZZLE   74  74 100 CALM      29.92S                  
6HR MIN TEMP:  74; 6HR MAX TEMP:  86; 6HR PCP:  0.01;                

HAMMOND*       RAIN      73  70  88 NE6       29.93F                  
HOUMA*         CLOUDY    75  73  94 NE5       29.93F                  
PORT FOURCHON* CLOUDY    79  73  83 NW3       29.94F                  

$$

LAZ041-044-053-054-290100-
SOUTHWEST LOUISIANA
  
CITY           SKY/WX    TMP DP  RH WIND       PRES   REMARKS
LAKE CHARLES   CLOUDY    83  73  72 NE7       29.95R                  
6HR MIN TEMP:  83; 6HR MAX TEMP:  96;                                

LAFAYETTE      CLOUDY    75  73  93 CALM      29.94R                  
6HR MIN TEMP:  73; 6HR MAX TEMP:  91; 6HR PCP:  0.32;                

PATTERSON      CLOUDY    76  73  91 E3        29.94S                  
6HR MIN TEMP:  76; 6HR MAX TEMP:  91;                                

SALT POINT       N/A     76  74  93 CALM      29.92                   
6HR MIN TEMP:  75; 6HR MAX TEMP:  90;                                

NEW IBERIA     CLOUDY    75  72  90 E5        29.93F                  
6HR MIN TEMP:  74; 6HR MAX TEMP:  89; 6HR PCP:  0.37;                

CHENAULT AIRPK PTSUNNY   81  73  78 NE5       29.95R                  

$$

LAZ027-028-290100-
CENTRAL LOUISIANA
  
CITY           SKY/WX    TMP DP  RH WIND       PRES   REMARKS
FORT POLK      CLOUDY    77  75  92 NW5       29.94S                  
6HR MIN TEMP:  76; 6HR MAX TEMP:  90; 6HR PCP:  0.25;                

ALEXANDRIA INT CLOUDY    81  78  91 E6        29.93S                  
6HR MIN TEMP:  79; 6HR MAX TEMP:  90; 6HR PCP:  0.40;                

ALEXANDRIA     LGT RAIN  83  77  82 CALM      29.95S                  
6HR MIN TEMP:  79; 6HR MAX TEMP:  88; 6HR PCP:  0.76;                


$$

LAZ001-002-290100-
NORTHWEST LOUISIANA
  
CITY           SKY/WX    TMP DP  RH WIND       PRES   REMARKS
SHREVEPORT     MOSUNNY   89  72  56 NE9       29.96F HX  96           
6HR MIN TEMP:  87; 6HR MAX TEMP:  93;                                

BARKSDALE AFB  SUNNY     88  71  57 NE8       29.97R                  
6HR MIN TEMP:  87; 6HR MAX TEMP:  91;                                

DTN SHREVEPORT SUNNY     88  71  57 NE7       29.97S                  
6HR MIN TEMP:  87; 6HR MAX TEMP:  91;                                


$$

LAZ014-016-290100-
NORTHEAST LOUISIANA
  
CITY           SKY/WX    TMP DP  RH WIND       PRES   REMARKS
MONROE         LGT RAIN  80  77  90 NE5       29.97S                  
6HR MIN TEMP:  80; 6HR MAX TEMP:  89; 6HR PCP:  0.11;                

TALLULAH       CLOUDY    78  74  87 CALM      29.97R                  
6HR MIN TEMP:  75; 6HR MAX TEMP:  93; 6HR PCP:  0.39;                


$$

  

Return to Home page


Western Regional Climate Center, wrcc@dri.edu